Location: Saint-Palais-sur-Mer
(45.6429°N, 1.0859°W)
Time: 09:38:37
(UTC+01:00)

A-11 Canister half - All Passes

Search period start: 15 February 2026 00:00
Search period end: 25 February 2026 00:00
Orbit: 1525 x 1682 km, 47.3° (Epoch: 15 February)

Date Brightness Start Highest point End Pass type
(mag) Time Alt. Az. Time Alt. Az. Time Alt. Az.
15 Feb - 01:47:15 10° W 01:54:41 27° SW 02:02:16 10° S night (unlit)
15 Feb - 17:06:12 10° SSW 17:14:34 38° SE 17:22:50 10° ENE daylight
15 Feb - 19:09:25 10° WSW 19:18:46 82° SSE 19:28:06 10° ENE visible
15 Feb - 21:14:37 10° W 21:23:59 81° N 21:33:25 10° E visible
15 Feb - 23:19:47 10° WNW 23:29:01 71° SSW 23:38:28 10° SE visible
16 Feb - 01:25:20 10° WNW 01:32:55 29° SW 01:40:40 10° S visible
16 Feb - 16:44:32 10° SSW 16:52:48 36° SE 17:00:58 10° ENE daylight
16 Feb - 18:47:35 10° WSW 18:56:56 80° SSE 19:06:16 10° ENE visible
16 Feb - 20:52:46 10° W 21:02:08 81° N 21:11:33 10° E visible
16 Feb - 22:57:57 10° WNW 23:07:12 73° SSW 23:16:38 10° SE visible
17 Feb - 01:03:25 10° WNW 01:11:10 30° SW 01:19:03 10° S visible
17 Feb - 16:22:52 10° SSW 16:31:02 34° SE 16:39:05 10° ENE daylight
17 Feb - 18:25:46 10° WSW 18:35:07 78° SSE 18:44:25 10° ENE daylight
17 Feb - 20:30:55 10° W 20:40:17 81° N 20:49:41 10° E visible
17 Feb - 22:36:07 10° WNW 22:45:24 75° SSW 22:54:49 10° ESE visible
18 Feb - 00:41:31 10° WNW 00:49:24 32° SW 00:57:25 10° SSE visible
18 Feb - 16:01:14 10° SSW 16:09:16 33° SE 16:17:12 10° ENE daylight
18 Feb - 18:03:56 10° WSW 18:13:18 76° SSE 18:22:35 10° ENE daylight
18 Feb - 20:09:03 10° W 20:18:26 81° N 20:27:49 10° E visible
18 Feb - 22:14:16 10° WNW 22:23:34 77° SSW 22:32:59 10° ESE visible
19 Feb - 00:19:38 10° WNW 00:27:38 33° SW 00:35:47 10° SSE visible
19 Feb - 15:39:35 10° SSW 15:47:30 31° SE 15:55:17 10° ENE daylight
19 Feb - 17:42:07 10° WSW 17:51:29 74° SSE 18:00:45 10° ENE daylight
19 Feb - 19:47:12 10° W 19:56:34 81° N 20:05:58 10° E visible
19 Feb - 21:52:26 10° WNW 22:01:45 79° SSW 22:11:09 10° ESE visible
19 Feb - 23:57:45 10° WNW 00:05:52 35° SW 00:14:07 10° SSE visible
20 Feb - 15:17:58 10° S 15:25:45 30° SE 15:33:23 10° ENE daylight
20 Feb - 17:20:18 10° SW 17:29:39 72° SSE 17:38:54 10° ENE daylight
20 Feb - 19:25:20 10° W 19:34:43 81° N 19:44:05 10° E visible
20 Feb - 21:30:36 10° WNW 21:39:55 81° SSW 21:49:19 10° ESE visible
20 Feb - 23:35:52 10° WNW 23:44:06 37° SW 23:52:28 10° SSE visible
21 Feb - 14:56:22 10° S 15:03:59 28° SE 15:11:28 10° ENE daylight
21 Feb - 16:58:29 10° SW 17:07:51 70° SSE 17:17:04 10° ENE daylight
21 Feb - 19:03:28 10° W 19:12:52 81° N 19:22:14 10° E visible
21 Feb - 21:08:46 10° WNW 21:18:05 83° SSW 21:27:29 10° ESE visible
21 Feb - 23:13:59 10° WNW 23:22:19 39° SW 23:30:47 10° SSE visible
22 Feb - 14:34:47 10° S 14:42:14 27° SE 14:49:33 10° E daylight
22 Feb - 16:36:40 10° SW 16:46:02 68° SSE 16:55:14 10° ENE daylight
22 Feb - 18:41:36 10° W 18:51:01 82° N 19:00:23 10° E daylight
22 Feb - 20:46:55 10° WNW 20:56:16 84° SSW 21:05:39 10° ESE visible
22 Feb - 22:52:08 10° WNW 23:00:33 40° SW 23:09:05 10° SSE visible
23 Feb - 14:13:12 10° S 14:20:29 25° SE 14:27:37 10° E daylight
23 Feb - 16:14:52 10° SW 16:24:13 66° SSE 16:33:24 10° ENE daylight
23 Feb - 18:19:44 10° W 18:29:10 82° N 18:38:32 10° E daylight
23 Feb - 20:25:04 10° WNW 20:34:26 86° SSW 20:43:49 10° ESE visible
23 Feb - 22:30:15 10° WNW 22:38:46 42° SW 22:47:23 10° SSE visible
24 Feb - 00:39:52 10° WSW 00:41:45 11° WSW 00:43:38 10° SW visible
24 Feb - 13:51:39 10° S 13:58:43 24° SE 14:05:40 10° E daylight
24 Feb - 15:53:04 10° SW 16:02:25 64° SSE 16:11:34 10° ENE daylight
24 Feb - 17:57:52 10° W 18:07:19 83° N 18:16:40 10° E daylight
24 Feb - 20:03:13 10° WNW 20:12:36 87° SSW 20:21:58 10° ESE visible
24 Feb - 22:08:24 10° WNW 22:16:59 44° SW 22:25:40 10° SSE visible
